Content
SEND FEEDBACK

Daily
Averages
Monthly
Summary
United States of America

CHICAGO, ILLINOIS


Home > North America > United States > Illinois
Elevation: 674 feet     Latitude: 41 59N     Longitude: 087 54W

WEATHER
 
SELECT A DAY
Number of Records: 198,661;   Date Range: 7/8/95 - 11/19/14
 
SHARE

PRINT THIS DATA

[ ← Previous Day ]
WEATHER ALMANAC - JANUARY 19, 2013
[ Next Day → ]
[ °C ]   °F
Weather ElementAverageHighLow
Temperature40.5 °F46 °F (1:52 pm)26.1 °F (11:52 pm)
Dewpoint28.2 °F35.1 °F (4:52 pm)6.1 °F (10:52 pm)
Humidity62 %71 % (5:52 pm)38 % (10:52 pm)
Barometer29.84 in29.94 in (1:52 am)29.74 in (3:52 pm)
Wind Speed14.4 mph27.6 mph (9:52 pm)
Wind Gust43.7 mph (10:52 pm)
Weather ElementAverage
Visibility10 mi
Wind DirectionWSW (234.1 °)

Weather ElementTotal
Precipitation---
Heating Degree Days29 (Base 65)
Averaged from 22 records on January 19, 2013
WEATHER CONDITIONS BREAKOUT
WIND DIRECTION BREAKOUT
WEATHER BY HOUR - JANUARY 19, 2013
[ °C ]   °F
Local TimeTemperatureDewpointHumidityBarometerVisibilityWind DirectionWind SpeedGust SpeedPrecipitationEventsConditions
1:52 AM39.9 °F27.0 °F60 %29.94 in10.0 miSW (220°)12.7 mph21.9 mphClear
2:52 AM39.9 °F28.0 °F63 %29.94 in10.0 miSW (230°)12.7 mph18.4 mphClear
3:52 AM39.0 °F28.0 °F65 %29.92 in10.0 miSW (230°)8.1 mphClear
4:52 AM39.0 °F28.0 °F65 %29.91 in10.0 miSSW (210°)6.9 mphClear
5:52 AM37.9 °F28.0 °F68 %29.91 in10.0 miSSW (210°)8.1 mphPartly Cloudy
6:52 AM37.9 °F28.0 °F68 %29.90 in10.0 miSW (220°)11.5 mphMostly Cloudy
7:52 AM37.9 °F28.0 °F68 %29.90 in10.0 miSSW (210°)8.1 mphClear
8:52 AM39.0 °F28.9 °F67 %29.89 in10.0 miSSW (210°)10.4 mphClear
9:52 AM41.0 °F28.9 °F62 %29.88 in10.0 miSSW (210°)11.5 mphClear
10:52 AM43.0 °F30.0 °F60 %29.86 in10.0 miSW (220°)15.0 mph19.6 mphClear
11:52 AM45.0 °F30.9 °F58 %29.79 in10.0 miSSW (200°)19.6 mph25.3 mphClear
12:52 PM45.0 °F32.0 °F60 %29.78 in10.0 miSW (220°)12.7 mph23.0 mphMostly Cloudy
1:52 PM46.0 °F33.1 °F61 %29.75 in10.0 miSW (220°)13.8 mph23.0 mphMostly Cloudy
3:52 PM46.0 °F34.0 °F63 %29.74 in10.0 miSW (220°)16.1 mph23.0 mphClear
4:52 PM45.0 °F35.1 °F68 %29.77 in10.0 miWSW (240°)10.4 mphClear
5:52 PM44.1 °F35.1 °F71 %29.76 in10.0 miWSW (240°)11.5 mphClear
6:52 PM44.1 °F34.0 °F68 %29.77 in10.0 miWSW (250°)12.7 mph19.6 mphOvercast
7:52 PM44.1 °F32.0 °F63 %29.77 in10.0 miWest (260°)16.1 mph26.5 mphClear
8:52 PM42.1 °F30.9 °F65 %29.78 in10.0 miWest (280°)17.3 mph25.3 mphOvercast
9:52 PM39.9 °F24.1 °F53 %29.80 in10.0 miWest (270°)27.6 mph41.4 mphPartly Cloudy
10:52 PM28.9 °F6.1 °F38 %29.88 in10.0 miWNW (290°)27.6 mph43.7 mphClear
11:52 PM26.1 °F10.0 °F51 %29.91 in10.0 miWNW (290°)25.3 mph36.8 mphClear
Hourly data recorded from KPWK, located miles away from Chicago, Illinois







STORIES FROM OUR PARTNERS